Meteo orario Abdukarim

Oggi, 18 Giugno, Venerdi

Tempo Temperatura Precipitazioni Vento Pressione Umidità
00:00 +24°C° 0 mm 2 m/s 693 mm Hg 21%
01:00 +24°C° 0 mm 1 m/s 693 mm Hg 22%
02:00 +23°C° 0 mm 1 m/s 692 mm Hg 22%
03:00 +23°C° 0 mm 1 m/s 693 mm Hg 23%
04:00 +22°C° 0 mm 1 m/s 693 mm Hg 24%
05:00 +22°C° 0 mm 1 m/s 693 mm Hg 24%
06:00 +24°C° 0 mm 1 m/s 693 mm Hg 22%
07:00 +26°C° 0 mm 2 m/s 694 mm Hg 20%
08:00 +28°C° 0 mm 2 m/s 694 mm Hg 18%
09:00 +30°C° 0 mm 3 m/s 694 mm Hg 16%
10:00 +33°C° 0 mm 4 m/s 694 mm Hg 15%
11:00 +34°C° 0 mm 5 m/s 695 mm Hg 13%
12:00 +35°C° 0 mm 5 m/s 694 mm Hg 12%
13:00 +35°C° 0 mm 5 m/s 694 mm Hg 11%
14:00 +36°C° 0 mm 6 m/s 694 mm Hg 11%
15:00 +36°C° 0 mm 6 m/s 694 mm Hg 11%
16:00 +36°C° 0 mm 6 m/s 694 mm Hg 11%
17:00 +35°C° 0 mm 5 m/s 694 mm Hg 11%
18:00 +33°C° 0 mm 5 m/s 694 mm Hg 13%
19:00 +30°C° 0 mm 4 m/s 694 mm Hg 14%
20:00 +28°C° 0 mm 3 m/s 694 mm Hg 16%
21:00 +27°C° 0 mm 3 m/s 694 mm Hg 17%
22:00 +27°C° 0 mm 2 m/s 694 mm Hg 17%
23:00 +26°C° 0 mm 2 m/s 694 mm Hg 18%

Domani, 19 Giugno, Sabato

Tempo Temperatura Precipitazioni Vento Pressione Umidità
00:00 +26°C° 0 mm 2 m/s 694 mm Hg 18%
01:00 +25°C° 0 mm 2 m/s 693 mm Hg 18%
02:00 +25°C° 0 mm 2 m/s 693 mm Hg 19%
03:00 +25°C° 0 mm 2 m/s 693 mm Hg 19%
04:00 +24°C° 0 mm 2 m/s 693 mm Hg 19%
05:00 +24°C° 0 mm 2 m/s 693 mm Hg 20%
06:00 +26°C° 0 mm 2 m/s 694 mm Hg 18%
07:00 +28°C° 0 mm 2 m/s 694 mm Hg 16%
08:00 +31°C° 0 mm 1 m/s 695 mm Hg 14%
09:00 +32°C° 0 mm 2 m/s 695 mm Hg 13%
10:00 +35°C° 0 mm 3 m/s 695 mm Hg 12%
11:00 +36°C° 0 mm 4 m/s 695 mm Hg 10%
12:00 +37°C° 0 mm 4 m/s 695 mm Hg 10%
13:00 +37°C° 0 mm 4 m/s 694 mm Hg 9%
14:00 +38°C° 0 mm 4 m/s 694 mm Hg 9%
15:00 +39°C° 0 mm 5 m/s 694 mm Hg 9%
16:00 +37°C° 0 mm 5 m/s 693 mm Hg 10%
17:00 +38°C° 0 mm 6 m/s 693 mm Hg 10%
18:00 +35°C° 0 mm 6 m/s 693 mm Hg 13%
19:00 +34°C° 0 mm 6 m/s 693 mm Hg 16%
20:00 +32°C° 0 mm 6 m/s 693 mm Hg 19%
21:00 +29°C° 0.1 mm 6 m/s 694 mm Hg 24%
22:00 +27°C° 0.1 mm 6 m/s 695 mm Hg 30%
23:00 +24°C° 0.1 mm 6 m/s 695 mm Hg 35%

Dopodomani, 20 Giugno, Domenica

Tempo Temperatura Precipitazioni Vento Pressione Umidità
00:00 +23°C° 0 mm 5 m/s 695 mm Hg 34%
01:00 +22°C° 0 mm 4 m/s 695 mm Hg 34%
02:00 +21°C° 0 mm 3 m/s 694 mm Hg 33%
03:00 +20°C° 0 mm 3 m/s 694 mm Hg 32%
04:00 +19°C° 0 mm 3 m/s 694 mm Hg 31%
05:00 +19°C° 0 mm 4 m/s 694 mm Hg 30%
06:00 +20°C° 0 mm 4 m/s 695 mm Hg 28%
07:00 +21°C° 0 mm 5 m/s 695 mm Hg 25%
08:00 +22°C° 0 mm 5 m/s 695 mm Hg 23%
09:00 +23°C° 0 mm 6 m/s 695 mm Hg 22%
10:00 +26°C° 0 mm 6 m/s 695 mm Hg 21%
11:00 +28°C° 0 mm 7 m/s 696 mm Hg 20%
12:00 +29°C° 0 mm 7 m/s 695 mm Hg 18%
13:00 +30°C° 0 mm 7 m/s 695 mm Hg 17%
14:00 +32°C° 0 mm 7 m/s 695 mm Hg 16%
15:00 +32°C° 0 mm 7 m/s 695 mm Hg 15%
16:00 +32°C° 0 mm 7 m/s 695 mm Hg 14%
17:00 +32°C° 0 mm 6 m/s 695 mm Hg 14%
18:00 +29°C° 0 mm 6 m/s 695 mm Hg 15%
19:00 +27°C° 0 mm 6 m/s 695 mm Hg 16%
20:00 +25°C° 0 mm 5 m/s 695 mm Hg 17%
21:00 +23°C° 0 mm 5 m/s 695 mm Hg 18%
22:00 +22°C° 0 mm 4 m/s 695 mm Hg 19%
23:00 +21°C° 0 mm 4 m/s 695 mm Hg 20%

21 Giugno, Lunedi

Tempo Temperatura Precipitazioni Vento Pressione Umidità
00:00 +20°C° 0 mm 4 m/s 695 mm Hg 21%
01:00 +19°C° 0 mm 3 m/s 695 mm Hg 22%
02:00 +18°C° 0 mm 3 m/s 695 mm Hg 23%
03:00 +18°C° 0 mm 3 m/s 695 mm Hg 24%
04:00 +17°C° 0 mm 3 m/s 695 mm Hg 24%
05:00 +17°C° 0 mm 3 m/s 695 mm Hg 25%
06:00 +19°C° 0 mm 3 m/s 695 mm Hg 23%
07:00 +20°C° 0 mm 4 m/s 696 mm Hg 21%
08:00 +22°C° 0 mm 4 m/s 696 mm Hg 19%
09:00 +25°C° 0 mm 5 m/s 696 mm Hg 17%
10:00 +27°C° 0 mm 6 m/s 697 mm Hg 16%
11:00 +28°C° 0 mm 6 m/s 697 mm Hg 14%
12:00 +29°C° 0 mm 6 m/s 697 mm Hg 13%
13:00 +32°C° 0 mm 6 m/s 697 mm Hg 13%
14:00 +33°C° 0 mm 6 m/s 697 mm Hg 12%
15:00 +33°C° 0 mm 6 m/s 697 mm Hg 12%
16:00 +33°C° 0 mm 6 m/s 697 mm Hg 13%
17:00 +33°C° 0 mm 6 m/s 697 mm Hg 13%
18:00 +30°C° 0 mm 5 m/s 696 mm Hg 16%
19:00 +28°C° 0 mm 4 m/s 696 mm Hg 19%
20:00 +26°C° 0 mm 4 m/s 696 mm Hg 21%
21:00 +25°C° 0 mm 3 m/s 696 mm Hg 23%
22:00 +24°C° 0 mm 3 m/s 696 mm Hg 24%
23:00 +24°C° 0 mm 3 m/s 696 mm Hg 25%

22 Giugno, Martedi

Tempo Temperatura Precipitazioni Vento Pressione Umidità
00:00 +22°C° 0 mm 3 m/s 696 mm Hg 26%
01:00 +23°C° 0 mm 2 m/s 696 mm Hg 27%
02:00 +23°C° 0 mm 2 m/s 695 mm Hg 28%
03:00 +21°C° 0 mm 2 m/s 695 mm Hg 31%
04:00 +21°C° 0 mm 2 m/s 695 mm Hg 34%
05:00 +20°C° 0 mm 2 m/s 696 mm Hg 37%
06:00 +22°C° 0 mm 3 m/s 696 mm Hg 33%
07:00 +25°C° 0 mm 3 m/s 697 mm Hg 30%
08:00 +27°C° 0 mm 4 m/s 697 mm Hg 26%
09:00 +28°C° 0 mm 4 m/s 697 mm Hg 24%
10:00 +30°C° 0 mm 5 m/s 697 mm Hg 21%
11:00 +33°C° 0 mm 5 m/s 697 mm Hg 19%
12:00 +33°C° 0 mm 6 m/s 697 mm Hg 18%
13:00 +34°C° 0 mm 6 m/s 697 mm Hg 17%
14:00 +35°C° 0 mm 6 m/s 697 mm Hg 16%
15:00 +35°C° 0 mm 6 m/s 697 mm Hg 16%
16:00 +35°C° 0 mm 6 m/s 697 mm Hg 16%
17:00 +35°C° 0 mm 6 m/s 696 mm Hg 16%
18:00 +33°C° 0 mm 5 m/s 696 mm Hg 18%
19:00 +30°C° 0 mm 5 m/s 696 mm Hg 20%
20:00 +28°C° 0 mm 4 m/s 696 mm Hg 22%
21:00 +26°C° 0 mm 4 m/s 696 mm Hg 23%
22:00 +25°C° 0 mm 3 m/s 696 mm Hg 25%
23:00 +24°C° 0 mm 3 m/s 696 mm Hg 26%

23 Giugno, Mercoledi

Tempo Temperatura Precipitazioni Vento Pressione Umidità
00:00 +22°C° 0 mm 3 m/s 696 mm Hg 27%
01:00 +21°C° 0 mm 3 m/s 695 mm Hg 29%
02:00 +21°C° 0 mm 2 m/s 695 mm Hg 30%
03:00 +20°C° 0 mm 2 m/s 695 mm Hg 31%
04:00 +20°C° 0 mm 2 m/s 695 mm Hg 32%
05:00 +20°C° 0 mm 2 m/s 694 mm Hg 33%
06:00 +22°C° 0 mm 3 m/s 695 mm Hg 30%
07:00 +25°C° 0 mm 3 m/s 695 mm Hg 26%
08:00 +27°C° 0 mm 4 m/s 696 mm Hg 23%
09:00 +28°C° 0 mm 4 m/s 696 mm Hg 21%
10:00 +30°C° 0 mm 5 m/s 696 mm Hg 19%
11:00 +32°C° 0 mm 5 m/s 697 mm Hg 16%
12:00 +33°C° 0 mm 5 m/s 696 mm Hg 15%
13:00 +34°C° 0 mm 5 m/s 696 mm Hg 14%
14:00 +35°C° 0 mm 5 m/s 696 mm Hg 13%
15:00 +35°C° 0 mm 5 m/s 696 mm Hg 13%
16:00 +35°C° 0 mm 5 m/s 696 mm Hg 12%
17:00 +35°C° 0 mm 5 m/s 696 mm Hg 12%
18:00 +33°C° 0 mm 5 m/s 696 mm Hg 14%
19:00 +30°C° 0 mm 4 m/s 696 mm Hg 15%
20:00 +28°C° 0 mm 4 m/s 696 mm Hg 17%
21:00 +27°C° 0 mm 3 m/s 696 mm Hg 18%
22:00 +25°C° 0 mm 3 m/s 696 mm Hg 20%
23:00 +24°C° 0 mm 2 m/s 695 mm Hg 21%
Mostrare altro

Abbiamo bisogno del tuo consenso

Meteoprog e i nostri fornitori di servizi possono memorizzare e accedere a dati personali come cookie, identificatori di dispositivi o altre tecnologie simili sul tuo dispositivo e possono elaborare tali dati per personalizzare i contenuti e gli annunci, nonché fornire funzionalità dei social media e analizzarne il traffico.

  • Archiviare e/o accedere alle informazioni sul tuo dispositivo

    Cookie, identificatori di dispositivi o altre informazioni possono essere memorizzati o resi accessibili sul tuo dispositivo per le finalità sopra indicate.

  • Annunci e contenuti personalizzati, misurazione di annunci e contenuti, approfondimenti sul pubblico e sviluppo di prodotti

    Gli annunci e i contenuti possono essere personalizzati in base a un profilo. È possibile aggiungere più dati per personalizzare meglio annunci e contenuti. È possibile misurare il rendimento degli annunci e dei contenuti. È possibile ricavare informazioni sul pubblico che ha visto gli annunci e i contenuti. Tali dati possono essere utilizzati per sviluppare o migliorare l'esperienza, i sistemi e il software dell'utente.

Cliccando su “Accetto”, acconsenti all'uso di cookie, identificatori di dispositivo, web beacon o altre tecnologie simili. Puoi modificare le impostazioni nel browser del tuo dispositivo.

Per determinati scopi, è possibile fare affidamento su interessi legali, piuttosto che sul consenso. Puoi approfondire questo argomento consultando la nostra Informativa sulla privacy e sui cookie.